This is the latest recevied weather packets stored in our database for station/object W2JGA. If no packets are shown the sender has not sent any weather packets the latest 1 day(s).
| Time | Temp. | Humidity | Pressure | Rain* | Wind** | Luminosity | Snow |
|---|---|---|---|---|---|---|---|
| 1777991614 | 16.11° C | 87% | 1015 hPa | 0 mm | 0 m/s | 93 W/m² | - |
| 1777991311 | 15.56° C | 88% | 1014.7 hPa | 0 mm | 0 m/s | 63 W/m² | - |
| 1777991009 | 15.56° C | 89% | 1015 hPa | 0 mm | 0 m/s | 39 W/m² | - |
| 1777990706 | 15.56° C | 91% | 1014.7 hPa | 0 mm | 0 m/s | 49 W/m² | - |
| 1777990404 | 15° C | 91% | 1014.7 hPa | 0 mm | 0 m/s | 75 W/m² | - |
| 1777990100 | 15° C | 93% | 1014.7 hPa | 0 mm | 0 m/s | 86 W/m² | - |
| 1777989796 | 15° C | 93% | 1015 hPa | 0 mm | 0 m/s | 53 W/m² | - |
| 1777989494 | 15° C | 93% | 1014.7 hPa | 0 mm | 0 m/s | 66 W/m² | - |
| 1777989189 | 15° C | 93% | 1014.7 hPa | 0 mm | 0 m/s | 63 W/m² | - |
| 1777988886 | 14.44° C | 93% | 1014.7 hPa | 0 mm | 0 m/s | 60 W/m² | - |
| 1777988583 | 14.44° C | 93% | 1014.7 hPa | 0 mm | 0.45 m/s, 124° | 56 W/m² | - |
| 1777988279 | 14.44° C | 93% | 1014.7 hPa | 0 mm | 0 m/s | 54 W/m² | - |
| 1777987976 | 14.44° C | 93% | 1014.7 hPa | 0 mm | 0 m/s | 46 W/m² | - |
| 1777987672 | 14.44° C | 94% | 1014.3 hPa | 0 mm | 0 m/s | 39 W/m² | - |
| 1777987369 | 14.44° C | 94% | 1014.3 hPa | 0 mm | 0 m/s | 33 W/m² | - |
| 1777987067 | 14.44° C | 94% | 1014.3 hPa | 0 mm | 0 m/s | 23 W/m² | - |
| 1777986764 | 14.44° C | 94% | 1014.3 hPa | 0 mm | 0 m/s | 18 W/m² | - |
| 1777986461 | 14.44° C | 94% | 1014.3 hPa | 0 mm | 0 m/s | 19 W/m² | - |
| 1777986160 | 14.44° C | 95% | 1014.3 hPa | 0 mm | 0 m/s | 11 W/m² | - |
| 1777985856 | 14.44° C | 94% | 1013.9 hPa | 0.25 mm | 0 m/s | 7 W/m² | - |
| 1777985554 | 14.44° C | 95% | 1014.3 hPa | 0.25 mm | 0 m/s | 6 W/m² | - |
| 1777985250 | 13.89° C | 95% | 1013.9 hPa | 0.25 mm | 0 m/s | 4 W/m² | - |
| 1777984947 | 14.44° C | 95% | 1013.9 hPa | 0.25 mm | 0 m/s | 2 W/m² | - |
| 1777984643 | 14.44° C | 95% | 1013.9 hPa | 0.25 mm | 0 m/s | 0 W/m² | - |
| 1777984340 | 14.44° C | 95% | 1014.3 hPa | 0.25 mm | 0 m/s | 0 W/m² | - |
* Rain latest hour (hover to see other rain measurements)
** Current wind speed in m/s (hover to see current wind gust speed)